EW7234 Weather Reports


Display with metric or nautical units.
time (UTC)temp
F
wind
direction
speed
MPH
gust
MPH
rain 1hr
in
rain 24hr
in
rain mn
in
humidity
%
barometer
mb
20260504141004 56 288 2.0 6.0 0.00 0.00 0.00 61 1006.6
20260504140504 56 291 3.0 6.0 0.00 0.00 0.00 62 1006.7
20260504110503 43 0 0.0 0.0 0.00 0.00 0.00 84 1006.2
20260504100504 45 0 0.0 0.0 0.00 0.00 0.00 80 1006.2
20260504082005 48 0 0.0 0.0 0.00 0.00 0.00 76 1006.9
20260504081504 48 0 0.0 0.0 0.00 0.00 0.00 76 1006.9
20260504081004 48 0 0.0 0.0 0.00 0.00 0.00 76 1007.0
20260504080505 48 0 0.0 0.0 0.00 0.00 0.00 76 1007.0
20260504045505 58 80 0.0 3.0 0.00 0.00 0.00 54 1008.7
20260504045004 58 95 0.0 1.0 0.00 0.00 0.00 52 1008.7
20260504044505 58 0 0.0 0.0 0.00 0.00 0.00 52 1008.7
20260504044004 58 93 1.0 6.0 0.00 0.00 0.00 53 1008.7
20260504043505 58 97 1.0 6.0 0.00 0.00 0.00 53 1008.8
20260504043006 57 104 0.0 3.0 0.00 0.00 0.00 53 1009.3
20260504042505 57 118 0.0 1.0 0.00 0.00 0.00 54 1009.6
20260504042005 57 118 0.0 1.0 0.00 0.00 0.00 54 1009.8
20260504041505 57 0 0.0 0.0 0.00 0.00 0.00 54 1009.6
20260504041004 58 118 0.0 2.0 0.00 0.00 0.00 54 1009.4
20260504040504 58 118 0.0 2.0 0.00 0.00 0.00 53 1009.4
20260504035504 59 0 0.0 0.0 0.00 0.00 0.00 50 1009.2
20260504035005 60 0 0.0 0.0 0.00 0.00 0.00 50 1009.3
20260504034505 60 0 0.0 0.0 0.00 0.00 0.00 49 1009.1
20260504034005 60 0 0.0 0.0 0.00 0.00 0.00 49 1009.1
20260504033504 60 118 0.0 1.0 0.00 0.00 0.00 48 1009.2
20260504033004 61 118 0.0 1.0 0.00 0.00 0.00 48 1009.1
20260504032504 61 118 0.0 2.0 0.00 0.00 0.00 48 1009.1
20260504031505 62 118 0.0 1.0 0.00 0.00 0.00 46 1009.0
20260504025504 64 0 0.0 0.0 0.00 0.00 0.00 43 1008.8
20260504025005 64 0 0.0 0.0 0.00 0.00 0.00 41 1008.6
20260504024505 64 0 0.0 0.0 0.00 0.00 0.00 40 1008.4
20260504024005 64 0 0.0 0.0 0.00 0.00 0.00 40 1008.4
20260504023004 66 0 0.0 0.0 0.00 0.00 0.00 38 1008.2
20260504022505 66 117 0.0 1.0 0.00 0.00 0.00 38 1008.2
20260504022004 66 118 0.0 1.0 0.00 0.00 0.00 37 1008.2
20260504021504 67 118 0.0 2.0 0.00 0.00 0.00 37 1008.1
20260504021005 67 118 0.0 2.0 0.00 0.00 0.00 37 1008.0
20260504020504 67 118 0.0 1.0 0.00 0.00 0.00 37 1008.0
20260504020004 67 118 0.0 2.0 0.00 0.00 0.00 36 1007.9
20260504015504 68 118 0.0 2.0 0.00 0.00 0.00 36 1008.0
20260504015005 68 118 0.0 2.0 0.00 0.00 0.00 35 1008.0
20260504014505 69 118 0.0 1.0 0.00 0.00 0.00 35 1008.0
20260504014004 69 118 0.0 1.0 0.00 0.00 0.00 34 1008.1
20260504013504 70 118 0.0 1.0 0.00 0.00 0.00 33 1008.1
20260504013005 70 93 0.0 4.0 0.00 0.00 0.00 33 1008.4
20260504012504 71 93 0.0 4.0 0.00 0.00 0.00 32 1008.5
20260504011505 72 91 0.0 3.0 0.00 0.00 0.00 31 1008.4
20260504011004 72 90 0.0 3.0 0.00 0.00 0.00 30 1008.4
20260504010504 72 93 0.0 3.0 0.00 0.00 0.00 29 1008.5
20260504010005 73 92 1.0 5.0 0.00 0.00 0.00 29 1008.6
20260504005504 73 86 1.0 5.0 0.00 0.00 0.00 29 1008.7
20260504005004 74 86 1.0 5.0 0.00 0.00 0.00 28 1008.7
20260504004505 75 88 0.0 4.0 0.00 0.00 0.00 28 1008.7
20260504003504 75 176 0.0 3.0 0.00 0.00 0.00 28 1009.0
20260504003004 74 85 0.0 3.0 0.00 0.00 0.00 28 1009.0
20260504002004 75 136 0.0 3.0 0.00 0.00 0.00 29 1009.2
20260504001505 74 131 0.0 3.0 0.00 0.00 0.00 29 1009.1
20260504000504 73 98 0.0 4.0 0.00 0.00 0.00 29 1009.2
20260504000005 73 88 1.0 5.0 0.00 0.00 0.00 29 1009.4
20260503235504 73 76 3.0 6.0 0.00 0.00 0.00 29 1009.5
20260503235005 73 77 4.0 7.0 0.00 0.00 0.00 29 1009.5
20260503234505 73 82 3.0 7.0 0.00 0.00 0.00 29 1009.6
20260503234004 73 74 1.0 5.0 0.00 0.00 0.00 29 1009.7
20260503233505 74 56 2.0 5.0 0.00 0.00 0.00 29 1009.7
20260503233004 74 64 1.0 5.0 0.00 0.00 0.00 28 1009.8
20260503232504 74 81 1.0 6.0 0.00 0.00 0.00 29 1009.9
20260503231505 74 71 3.0 6.0 0.00 0.00 0.00 28 1010.0
20260503231004 74 80 2.0 7.0 0.00 0.00 0.00 28 1010.0
20260503230504 74 45 1.0 7.0 0.00 0.00 0.00 28 1010.0
20260503230004 74 351 1.0 4.0 0.00 0.00 0.00 27 1010.2
20260503225505 75 347 1.0 4.0 0.00 0.00 0.00 27 1010.3
20260503225005 75 8 1.0 4.0 0.00 0.00 0.00 27 1010.3
20260503224504 75 8 1.0 4.0 0.00 0.00 0.00 27 1010.3
20260503224004 75 307 1.0 5.0 0.00 0.00 0.00 27 1010.3
20260503223504 75 342 1.0 5.0 0.00 0.00 0.00 27 1010.4
20260503222005 74 73 4.0 8.0 0.00 0.00 0.00 30 1010.7
20260503221505 74 64 4.0 8.0 0.00 0.00 0.00 28 1010.7
20260503221005 74 60 2.0 9.0 0.00 0.00 0.00 29 1010.8
20260503220504 73 60 3.0 9.0 0.00 0.00 0.00 28 1010.9
20260503220004 73 49 3.0 9.0 0.00 0.00 0.00 29 1011.0
20260503214504 73 38 3.0 7.0 0.00 0.00 0.00 29 1011.2
20260503214004 73 8 4.0 8.0 0.00 0.00 0.00 28 1011.4
20260503213504 73 32 4.0 9.0 0.00 0.00 0.00 28 1011.5
20260503213004 73 62 5.0 12.0 0.00 0.00 0.00 29 1011.5
20260503212505 73 51 6.0 12.0 0.00 0.00 0.00 29 1011.5
20260503212004 73 52 6.0 11.0 0.00 0.00 0.00 28 1011.6
20260503211504 74 40 5.0 10.0 0.00 0.00 0.00 29 1011.6
20260503211004 74 337 3.0 8.0 0.00 0.00 0.00 29 1011.7
20260503210504 74 336 2.0 7.0 0.00 0.00 0.00 29 1011.8
20260503210005 73 18 2.0 7.0 0.00 0.00 0.00 28 1012.0
20260503205504 73 21 2.0 7.0 0.00 0.00 0.00 29 1012.0
20260503205004 73 312 1.0 5.0 0.00 0.00 0.00 27 1012.1
20260503204504 74 315 2.0 7.0 0.00 0.00 0.00 28 1012.2
20260503204004 74 306 3.0 8.0 0.00 0.00 0.00 28 1012.2
20260503203504 74 339 4.0 9.0 0.00 0.00 0.00 28 1012.3
20260503203004 73 41 4.0 9.0 0.00 0.00 0.00 28 1012.3
20260503202504 74 71 2.0 9.0 0.00 0.00 0.00 28 1012.4
20260503202005 74 208 2.0 7.0 0.00 0.00 0.00 28 1012.4
20260503201005 75 170 2.0 7.0 0.00 0.00 0.00 29 1012.4
20260503200504 74 176 1.0 6.0 0.00 0.00 0.00 29 1012.6
20260503200004 73 102 2.0 8.0 0.00 0.00 0.00 30 1012.4
20260503195504 72 87 2.0 8.0 0.00 0.00 0.00 30 1012.4
20260503194505 72 87 3.0 11.0 0.00 0.00 0.00 29 1012.5
20260503194004 72 82 5.0 11.0 0.00 0.00 0.00 29 1012.5
20260503193504 73 79 5.0 11.0 0.00 0.00 0.00 29 1012.5
20260503193004 73 66 2.0 9.0 0.00 0.00 0.00 29 1012.5
20260503192504 73 88 2.0 9.0 0.00 0.00 0.00 28 1012.7
20260503192005 73 96 4.0 9.0 0.00 0.00 0.00 29 1012.6
20260503191505 72 86 5.0 10.0 0.00 0.00 0.00 31 1012.8
20260503190504 72 83 1.0 7.0 0.00 0.00 0.00 30 1012.9
20260503190004 72 51 3.0 6.0 0.00 0.00 0.00 33 1013.1
20260503185504 72 67 5.0 13.0 0.00 0.00 0.00 30 1013.1
20260503185004 72 77 5.0 13.0 0.00 0.00 0.00 30 1013.2
20260503184505 72 62 5.0 10.0 0.00 0.00 0.00 32 1013.3
20260503184004 72 64 5.0 10.0 0.00 0.00 0.00 30 1013.3
20260503183504 72 90 2.0 8.0 0.00 0.00 0.00 31 1013.4
20260503183004 72 86 3.0 9.0 0.00 0.00 0.00 30 1013.5
20260503182505 72 69 3.0 9.0 0.00 0.00 0.00 30 1013.5
20260503182006 72 54 1.0 6.0 0.00 0.00 0.00 29 1013.6
20260503181505 72 79 3.0 9.0 0.00 0.00 0.00 31 1013.8
20260503181004 71 92 4.0 9.0 0.00 0.00 0.00 30 1013.8
20260503180004 71 73 5.0 13.0 0.00 0.00 0.00 32 1014.0
20260503175504 70 51 5.0 11.0 0.00 0.00 0.00 32 1014.0
20260503175004 70 55 7.0 12.0 0.00 0.00 0.00 31 1014.1
20260503174004 70 77 5.0 14.0 0.00 0.00 0.00 32 1014.3
20260503173004 69 72 7.0 11.0 0.00 0.00 0.00 32 1014.6
20260503172504 69 60 7.0 13.0 0.00 0.00 0.00 33 1014.7
20260503172004 69 61 8.0 13.0 0.00 0.00 0.00 32 1014.8
20260503171505 69 74 7.0 11.0 0.00 0.00 0.00 33 1014.9
20260503171004 69 73 7.0 14.0 0.00 0.00 0.00 33 1014.9
20260503170504 68 57 7.0 14.0 0.00 0.00 0.00 34 1015.0
20260503151004 63 78 10.0 19.0 0.00 0.00 0.00 38 1015.6
20260503150504 62 80 9.0 15.0 0.00 0.00 0.00 40 1015.7